RYR716A EGPH-LOWW

Flight info

Callsign RYR716A
Flight time 2h 11m
Altitude 37000
Route TLA Y96 OTBUN DCT ERKIT N110 DOLAS L603 LAMSO DCT PETIK DCT NOMKA DCT OMELO DCT EVIKU DCT BITSI DCT MIKOV
Aircraft A320/M-SDE3FGHIRWY/LB1

Departure

Time 2026-04-20 03:10
Airport Edinburgh Airport (EGPH)

Arrival

Time 2026-04-20 05:21
Airport Vienna International Airport (LOWW)
Time Latitude Longitude Altitude Speed Heading
2026-04-20 02:41 55.94939 -3.36356 116 ft 0 kts 148°
2026-04-20 03:01 55.94947 -3.36364 112 ft 2 kts 147°
2026-04-20 03:01 55.94961 -3.36380 113 ft 2 kts 147°
2026-04-20 03:01 55.94975 -3.36395 112 ft 2 kts 148°
2026-04-20 03:02 55.94989 -3.36411 112 ft 2 kts 123°
2026-04-20 03:02 55.94994 -3.36438 113 ft 2 kts 83°
2026-04-20 03:02 55.94991 -3.36465 113 ft 2 kts 65°
2026-04-20 03:02 55.94988 -3.36474 113 ft 0 kts 61°
2026-04-20 03:05 55.94989 -3.36472 113 ft 1 kts 61°
2026-04-20 03:05 55.95004 -3.36426 114 ft 6 kts 57°
2026-04-20 03:06 55.95047 -3.36387 114 ft 8 kts 354°
2026-04-20 03:06 55.95107 -3.36355 114 ft 11 kts 52°
2026-04-20 03:06 55.95153 -3.36224 115 ft 14 kts 58°
2026-04-20 03:06 55.95209 -3.36059 115 ft 17 kts 59°
2026-04-20 03:07 55.95276 -3.35863 115 ft 20 kts 59°
2026-04-20 03:07 55.95353 -3.35638 114 ft 21 kts 58°
2026-04-20 03:07 55.95419 -3.35445 116 ft 10 kts 58°
2026-04-20 03:07 55.95481 -3.35426 116 ft 12 kts 333°
2026-04-20 03:08 55.95498 -3.35446 114 ft 0 kts 325°
2026-04-20 03:08 55.95508 -3.35458 113 ft 5 kts 325°
2026-04-20 03:08 55.95551 -3.35512 112 ft 11 kts 318°
2026-04-20 03:09 55.95546 -3.35636 113 ft 10 kts 239°
2026-04-20 03:09 55.95489 -3.35804 113 ft 33 kts 239°
2026-04-20 03:09 55.95241 -3.36536 112 ft 102 kts 239°
2026-04-20 03:09 55.94948 -3.37398 111 ft 137 kts 239°
2026-04-20 03:10 55.94408 -3.38995 506 ft 146 kts 239°
2026-04-20 03:10 55.93886 -3.40540 1045 ft 152 kts 239°
2026-04-20 03:10 55.93318 -3.42210 1448 ft 166 kts 240°
2026-04-20 03:10 55.92670 -3.44121 1664 ft 192 kts 240°
2026-04-20 03:11 55.91929 -3.46267 1967 ft 214 kts 240°
2026-04-20 03:11 55.91100 -3.48651 2322 ft 239 kts 240°
2026-04-20 03:11 55.90188 -3.51276 2905 ft 256 kts 240°
2026-04-20 03:11 55.88977 -3.53665 3781 ft 266 kts 217°
2026-04-20 03:12 55.87263 -3.54931 4742 ft 272 kts 189°
2026-04-20 03:12 55.85381 -3.54645 5709 ft 276 kts 162°
2026-04-20 03:12 55.83594 -3.53339 6661 ft 278 kts 161°
2026-04-20 03:12 55.81753 -3.52225 7502 ft 282 kts 164°
2026-04-20 03:13 55.79859 -3.51232 8323 ft 286 kts 165°
2026-04-20 03:13 55.77921 -3.50271 9117 ft 292 kts 165°
2026-04-20 03:13 55.75952 -3.49293 9910 ft 297 kts 164°
2026-04-20 03:13 55.73972 -3.48147 10616 ft 303 kts 154°
2026-04-20 03:14 55.72205 -3.45925 10848 ft 323 kts 134°
2026-04-20 03:14 55.70557 -3.43014 11110 ft 342 kts 133°
2026-04-20 03:14 55.68869 -3.39971 11709 ft 349 kts 133°
2026-04-20 03:14 55.67161 -3.36879 12403 ft 353 kts 133°
2026-04-20 03:15 55.65435 -3.33766 13129 ft 356 kts 133°
2026-04-20 03:15 55.63683 -3.30632 13840 ft 360 kts 134°
2026-04-20 03:15 55.61904 -3.27472 14452 ft 364 kts 134°
2026-04-20 03:15 55.60101 -3.24280 15057 ft 368 kts 134°
2026-04-20 03:16 55.58283 -3.21068 15663 ft 372 kts 134°
2026-04-20 03:16 55.56447 -3.17826 16253 ft 375 kts 134°
2026-04-20 03:16 55.54595 -3.14558 16833 ft 378 kts 134°
2026-04-20 03:16 55.52722 -3.11255 17425 ft 382 kts 134°
2026-04-20 03:17 55.50832 -3.07927 18018 ft 385 kts 134°
2026-04-20 03:17 55.48927 -3.04578 18631 ft 389 kts 134°
2026-04-20 03:17 55.47020 -3.01155 19151 ft 392 kts 130°
2026-04-20 03:17 55.45384 -2.97302 19695 ft 395 kts 120°
2026-04-20 03:18 55.44047 -2.93127 20243 ft 398 kts 117°
2026-04-20 03:18 55.42679 -2.88801 20793 ft 401 kts 117°
2026-04-20 03:18 55.41306 -2.84495 21326 ft 405 kts 117°
2026-04-20 03:18 55.39939 -2.80218 21849 ft 408 kts 117°
2026-04-20 03:19 55.38520 -2.75794 22378 ft 412 kts 118°
2026-04-20 03:19 55.37124 -2.71455 22903 ft 415 kts 118°
2026-04-20 03:19 55.35697 -2.67021 23405 ft 418 kts 118°
2026-04-20 03:19 55.34261 -2.62558 23891 ft 421 kts 118°
2026-04-20 03:20 55.32812 -2.58067 24287 ft 424 kts 118°
2026-04-20 03:20 55.31355 -2.53553 24673 ft 427 kts 118°
2026-04-20 03:20 55.29883 -2.49002 25062 ft 430 kts 119°
2026-04-20 03:20 55.28178 -2.44658 25438 ft 434 kts 128°
2026-04-20 03:21 55.26091 -2.40820 25801 ft 438 kts 138°
2026-04-20 03:21 55.23651 -2.37461 26143 ft 442 kts 143°
2026-04-20 03:21 55.21183 -2.34213 26463 ft 445 kts 143°
2026-04-20 03:21 55.18696 -2.30927 26804 ft 449 kts 143°
2026-04-20 03:22 55.16205 -2.27624 27133 ft 452 kts 142°
2026-04-20 03:22 55.13695 -2.24290 27485 ft 454 kts 142°
2026-04-20 03:22 55.11171 -2.20941 27822 ft 457 kts 143°
2026-04-20 03:22 55.08622 -2.17569 28221 ft 460 kts 143°
2026-04-20 03:23 55.06067 -2.14202 28605 ft 462 kts 143°
2026-04-20 03:23 55.03499 -2.10829 28953 ft 464 kts 143°
2026-04-20 03:23 55.00907 -2.07432 29290 ft 467 kts 143°
2026-04-20 03:23 54.98304 -2.04024 29594 ft 470 kts 143°
2026-04-20 03:24 54.95675 -2.00589 29858 ft 474 kts 143°
2026-04-20 03:24 54.93028 -1.97141 30165 ft 477 kts 143°
2026-04-20 03:24 54.90367 -1.93677 30504 ft 478 kts 143°
2026-04-20 03:24 54.87704 -1.90212 30890 ft 478 kts 143°
2026-04-20 03:25 54.85044 -1.86755 31265 ft 478 kts 143°
2026-04-20 03:25 54.82381 -1.83304 31662 ft 477 kts 143°
2026-04-20 03:25 54.79719 -1.79859 32043 ft 477 kts 143°
2026-04-20 03:25 54.77061 -1.76419 32432 ft 477 kts 143°
2026-04-20 03:26 54.74403 -1.72985 32821 ft 477 kts 143°
2026-04-20 03:26 54.71741 -1.69554 33152 ft 478 kts 143°
2026-04-20 03:26 54.69072 -1.66126 33503 ft 478 kts 143°
2026-04-20 03:26 54.66395 -1.62695 33889 ft 478 kts 143°
2026-04-20 03:27 54.63728 -1.59284 34337 ft 477 kts 143°
2026-04-20 03:27 54.61057 -1.55870 34704 ft 476 kts 143°
2026-04-20 03:27 54.58402 -1.52482 35040 ft 475 kts 143°
2026-04-20 03:27 54.55745 -1.49094 35343 ft 475 kts 143°
2026-04-20 03:28 54.53092 -1.45713 35642 ft 474 kts 143°
2026-04-20 03:28 54.50439 -1.42335 35928 ft 474 kts 143°
2026-04-20 03:28 54.45130 -1.35605 36438 ft 475 kts 143°
2026-04-20 03:29 54.42431 -1.32199 36706 ft 475 kts 143°
2026-04-20 03:29 54.39769 -1.28846 36977 ft 475 kts 143°
2026-04-20 03:29 54.37107 -1.25494 37231 ft 475 kts 143°
2026-04-20 03:29 54.34440 -1.22137 37323 ft 477 kts 143°
2026-04-20 03:30 54.29053 -1.15372 37330 ft 482 kts 143°
2026-04-20 03:30 54.23640 -1.08597 37317 ft 483 kts 144°
2026-04-20 03:31 54.18211 -1.01820 37323 ft 483 kts 144°
2026-04-20 03:31 54.12783 -0.95076 37328 ft 483 kts 144°
2026-04-20 03:32 54.07346 -0.88355 37334 ft 483 kts 144°
2026-04-20 03:32 54.01893 -0.81649 37338 ft 483 kts 144°
2026-04-20 03:33 53.96377 -0.75097 37331 ft 484 kts 146°
2026-04-20 03:33 53.90818 -0.68666 37334 ft 484 kts 146°
2026-04-20 03:34 53.85255 -0.62229 37335 ft 484 kts 146°
2026-04-20 03:34 53.79702 -0.55766 37340 ft 485 kts 146°
2026-04-20 03:35 53.74142 -0.49313 37338 ft 485 kts 146°
2026-04-20 03:35 53.68580 -0.42874 37328 ft 485 kts 146°
2026-04-20 03:36 53.62996 -0.36456 37332 ft 486 kts 146°
2026-04-20 03:36 53.57631 -0.29558 37336 ft 486 kts 134°
2026-04-20 03:37 53.53375 -0.20672 37339 ft 486 kts 126°
2026-04-20 03:37 53.49304 -0.11600 37338 ft 486 kts 126°
2026-04-20 03:38 53.45218 -0.02572 37337 ft 486 kts 127°
2026-04-20 03:38 53.41119 0.06460 37351 ft 486 kts 126°
2026-04-20 03:39 53.37033 0.15475 37346 ft 486 kts 126°
2026-04-20 03:39 53.32938 0.24457 37342 ft 486 kts 127°
2026-04-20 03:40 53.28830 0.33426 37342 ft 485 kts 127°
2026-04-20 03:40 53.24717 0.42363 37320 ft 486 kts 127°
2026-04-20 03:41 53.20596 0.51302 37339 ft 486 kts 127°
2026-04-20 03:41 53.16468 0.60240 37341 ft 486 kts 127°
2026-04-20 03:42 53.12341 0.69149 37336 ft 486 kts 127°
2026-04-20 03:42 53.08203 0.78038 37336 ft 486 kts 127°
2026-04-20 03:43 53.04053 0.86900 37338 ft 486 kts 127°
2026-04-20 03:43 52.99973 0.95829 37315 ft 485 kts 121°
2026-04-20 03:44 52.97252 1.05988 37331 ft 481 kts 102°
2026-04-20 03:44 52.95954 1.16842 37328 ft 480 kts 98°
2026-04-20 03:45 52.94687 1.27718 37328 ft 481 kts 99°
2026-04-20 03:45 52.93400 1.38594 37329 ft 481 kts 99°
2026-04-20 03:46 52.92322 1.47702 37326 ft 481 kts 99°
2026-04-20 03:46 52.91029 1.58586 37340 ft 481 kts 99°
2026-04-20 03:47 52.89728 1.69434 37328 ft 480 kts 99°
2026-04-20 03:47 52.88418 1.80281 37326 ft 480 kts 99°
2026-04-20 03:48 52.87101 1.91110 37317 ft 480 kts 99°
2026-04-20 03:48 52.85762 2.01928 37332 ft 480 kts 99°
2026-04-20 03:49 52.84420 2.12733 37326 ft 479 kts 99°
2026-04-20 03:49 52.83077 2.23527 37316 ft 479 kts 99°
2026-04-20 03:50 52.81722 2.34316 37314 ft 479 kts 100°
2026-04-20 03:50 52.80353 2.45082 37310 ft 479 kts 100°
2026-04-20 03:51 52.78972 2.55846 37317 ft 479 kts 100°
2026-04-20 03:51 52.77588 2.66606 37308 ft 478 kts 100°
2026-04-20 03:52 52.76190 2.77341 37303 ft 478 kts 100°
2026-04-20 03:52 52.74788 2.88070 37301 ft 478 kts 100°
2026-04-20 03:53 52.73378 2.98795 37304 ft 478 kts 100°
2026-04-20 03:53 52.72190 3.09576 37289 ft 477 kts 96°
2026-04-20 03:54 52.71286 3.20397 37290 ft 477 kts 95°
2026-04-20 03:54 52.70374 3.31224 37284 ft 477 kts 96°
2026-04-20 03:55 52.69357 3.42103 37280 ft 477 kts 97°
2026-04-20 03:55 52.68299 3.52903 37298 ft 477 kts 97°
2026-04-20 03:56 52.67243 3.63691 37295 ft 477 kts 97°
2026-04-20 03:56 52.66197 3.74482 37294 ft 477 kts 97°
2026-04-20 03:57 52.65146 3.85258 37285 ft 476 kts 97°
2026-04-20 03:57 52.64084 3.96020 37279 ft 476 kts 97°
2026-04-20 03:58 52.62999 4.06783 37292 ft 476 kts 98°
2026-04-20 03:58 52.61907 4.17526 37279 ft 476 kts 98°
2026-04-20 03:59 52.60619 4.28206 37288 ft 476 kts 102°
2026-04-20 03:59 52.58958 4.38756 37282 ft 477 kts 104°
2026-04-20 04:00 52.57172 4.49334 37283 ft 477 kts 104°
2026-04-20 04:00 52.55469 4.59861 37281 ft 476 kts 103°
2026-04-20 04:01 52.53820 4.70396 37274 ft 476 kts 103°
2026-04-20 04:01 52.52161 4.80920 37278 ft 476 kts 103°
2026-04-20 04:02 52.50455 4.91491 37285 ft 476 kts 103°
2026-04-20 04:02 52.48745 5.01998 37289 ft 476 kts 103°
2026-04-20 04:03 52.47037 5.12498 37272 ft 476 kts 103°
2026-04-20 04:03 52.45303 5.23064 37272 ft 476 kts 104°
2026-04-20 04:04 52.43576 5.33535 37269 ft 476 kts 104°
2026-04-20 04:04 52.41836 5.44020 37264 ft 477 kts 104°
2026-04-20 04:05 52.40073 5.54557 37270 ft 476 kts 104°
2026-04-20 04:05 52.38318 5.65013 37256 ft 476 kts 104°
2026-04-20 04:06 52.36553 5.75474 37254 ft 477 kts 104°
2026-04-20 04:06 52.34772 5.85927 37252 ft 477 kts 104°
2026-04-20 04:07 52.32986 5.96379 37266 ft 477 kts 104°
2026-04-20 04:07 52.31176 6.06897 37270 ft 477 kts 104°
2026-04-20 04:08 52.29365 6.17326 37259 ft 477 kts 104°
2026-04-20 04:08 52.27558 6.27735 37252 ft 477 kts 105°
2026-04-20 04:09 52.25739 6.38146 37245 ft 476 kts 105°
2026-04-20 04:09 52.23904 6.48527 37258 ft 476 kts 105°
2026-04-20 04:10 52.22065 6.58889 37251 ft 476 kts 105°
2026-04-20 04:10 52.20219 6.69242 37247 ft 475 kts 105°
2026-04-20 04:11 52.18369 6.79580 37238 ft 475 kts 105°
2026-04-20 04:11 52.16507 6.89910 37238 ft 475 kts 105°
2026-04-20 04:12 52.14625 7.00298 37239 ft 475 kts 105°
2026-04-20 04:12 52.12744 7.10597 37234 ft 475 kts 105°
2026-04-20 04:13 52.10852 7.20895 37236 ft 475 kts 106°
2026-04-20 04:13 52.09274 7.29452 37230 ft 475 kts 106°
2026-04-20 04:14 52.07353 7.39807 37246 ft 475 kts 106°
2026-04-20 04:14 52.05441 7.50063 37243 ft 474 kts 106°
2026-04-20 04:15 52.03521 7.60314 37227 ft 474 kts 106°
2026-04-20 04:15 52.01597 7.70541 37216 ft 474 kts 106°
2026-04-20 04:16 51.99662 7.80782 37223 ft 474 kts 106°
2026-04-20 04:16 51.97715 7.91011 37228 ft 475 kts 107°
2026-04-20 04:17 51.95754 8.01235 37221 ft 474 kts 107°
2026-04-20 04:17 51.93774 8.11511 37222 ft 474 kts 107°
2026-04-20 04:18 51.91807 8.21715 37223 ft 475 kts 107°
2026-04-20 04:18 51.89828 8.31914 37223 ft 475 kts 107°
2026-04-20 04:19 51.87836 8.42083 37213 ft 474 kts 107°
2026-04-20 04:19 51.85816 8.52325 37213 ft 474 kts 107°
2026-04-20 04:20 51.83805 8.62462 37207 ft 474 kts 107°
2026-04-20 04:20 51.81792 8.72606 37206 ft 473 kts 107°
2026-04-20 04:21 51.79769 8.82732 37206 ft 473 kts 107°
2026-04-20 04:21 51.77739 8.92834 37202 ft 473 kts 107°
2026-04-20 04:22 51.75708 9.02916 37186 ft 472 kts 108°
2026-04-20 04:22 51.73663 9.12998 37183 ft 472 kts 108°
2026-04-20 04:23 51.71600 9.23118 37173 ft 472 kts 108°
2026-04-20 04:23 51.69535 9.33185 37163 ft 472 kts 108°
2026-04-20 04:24 51.67447 9.43287 37159 ft 472 kts 108°
2026-04-20 04:24 51.65371 9.53331 37142 ft 473 kts 108°
2026-04-20 04:25 51.63286 9.63377 37143 ft 474 kts 108°
2026-04-20 04:25 51.61172 9.73493 37151 ft 474 kts 108°
2026-04-20 04:26 51.59054 9.83548 37150 ft 474 kts 108°
2026-04-20 04:26 51.56933 9.93585 37150 ft 475 kts 108°
2026-04-20 04:27 51.54787 10.03708 37150 ft 475 kts 108°
2026-04-20 04:27 51.52646 10.13737 37144 ft 475 kts 108°
2026-04-20 04:28 51.50494 10.23752 37140 ft 475 kts 109°
2026-04-20 04:28 51.48325 10.33833 37140 ft 475 kts 109°
2026-04-20 04:29 51.46157 10.43845 37133 ft 475 kts 109°
2026-04-20 04:29 51.44183 10.53937 37131 ft 474 kts 103°
2026-04-20 04:30 51.42564 10.64193 37114 ft 475 kts 104°
2026-04-20 04:30 51.40932 10.74440 37120 ft 475 kts 103°
2026-04-20 04:31 51.39302 10.84683 37111 ft 475 kts 103°
2026-04-20 04:31 51.37646 10.95022 37113 ft 476 kts 104°
2026-04-20 04:32 51.35992 11.05189 37107 ft 476 kts 104°
2026-04-20 04:32 51.34306 11.15501 37111 ft 475 kts 104°
2026-04-20 04:33 51.32631 11.25719 37113 ft 475 kts 104°
2026-04-20 04:33 51.30938 11.36001 37103 ft 475 kts 104°
2026-04-20 04:34 51.29247 11.46193 37102 ft 475 kts 104°
2026-04-20 04:34 51.27544 11.56365 37101 ft 474 kts 104°
2026-04-20 04:35 51.25823 11.66552 37099 ft 474 kts 104°
2026-04-20 04:35 51.24107 11.76707 37093 ft 474 kts 104°
2026-04-20 04:36 51.21511 11.92011 37084 ft 474 kts 105°
2026-04-20 04:37 51.20066 12.00452 37090 ft 474 kts 105°
2026-04-20 04:37 51.18316 12.10595 37081 ft 474 kts 105°
2026-04-20 04:38 51.16560 12.20729 37070 ft 474 kts 105°
2026-04-20 04:38 51.14794 12.30861 37070 ft 475 kts 105°
2026-04-20 04:39 51.13019 12.40992 37071 ft 475 kts 105°
2026-04-20 04:39 51.11221 12.51179 37076 ft 475 kts 105°
2026-04-20 04:40 51.09419 12.61315 37075 ft 476 kts 105°
2026-04-20 04:40 51.07616 12.71433 37073 ft 476 kts 105°
2026-04-20 04:41 51.05808 12.81540 37070 ft 476 kts 105°
2026-04-20 04:41 51.03973 12.91725 37069 ft 476 kts 106°
2026-04-20 04:42 51.02142 13.01817 37064 ft 476 kts 106°
2026-04-20 04:42 51.00298 13.11911 37063 ft 476 kts 106°
2026-04-20 04:43 50.98447 13.21981 37059 ft 475 kts 106°
2026-04-20 04:43 50.96589 13.32054 37052 ft 476 kts 106°
2026-04-20 04:44 50.94724 13.42123 37038 ft 476 kts 106°
2026-04-20 04:44 50.92849 13.52209 37028 ft 477 kts 106°
2026-04-20 04:45 50.90961 13.62303 37023 ft 478 kts 107°
2026-04-20 04:45 50.89051 13.72443 37029 ft 478 kts 107°
2026-04-20 04:46 50.87133 13.82535 37035 ft 478 kts 107°
2026-04-20 04:46 50.85193 13.92611 37032 ft 478 kts 110°
2026-04-20 04:47 50.82082 14.01826 37041 ft 476 kts 129°
2026-04-20 04:47 50.77454 14.09220 37032 ft 474 kts 140°
2026-04-20 04:48 50.72541 14.16286 37041 ft 474 kts 139°
2026-04-20 04:48 50.67683 14.23306 37027 ft 474 kts 139°
2026-04-20 04:49 50.62809 14.30322 37041 ft 474 kts 139°
2026-04-20 04:49 50.57917 14.37309 37041 ft 475 kts 140°
2026-04-20 04:50 50.53036 14.44257 37045 ft 475 kts 139°
2026-04-20 04:50 50.48127 14.51242 37038 ft 475 kts 139°
2026-04-20 04:51 50.43253 14.58246 37042 ft 475 kts 138°
2026-04-20 04:51 50.38514 14.65475 37037 ft 476 kts 137°
2026-04-20 04:52 50.33775 14.72807 37039 ft 476 kts 137°
2026-04-20 04:52 50.29030 14.80025 37044 ft 476 kts 138°
2026-04-20 04:53 50.24251 14.87195 37044 ft 476 kts 138°
2026-04-20 04:53 50.19465 14.94333 37048 ft 476 kts 138°
2026-04-20 04:54 50.14688 15.01449 37054 ft 476 kts 138°
2026-04-20 04:54 50.09898 15.08593 37054 ft 476 kts 138°
2026-04-20 04:55 50.05117 15.15711 37058 ft 476 kts 138°
2026-04-20 04:55 50.00326 15.22817 37059 ft 475 kts 138°
2026-04-20 04:56 49.95546 15.29909 37062 ft 475 kts 138°
2026-04-20 04:56 49.90792 15.36932 37062 ft 475 kts 138°
2026-04-20 04:57 49.85996 15.43977 37070 ft 475 kts 138°
2026-04-20 04:57 49.81191 15.51005 37055 ft 475 kts 139°
2026-04-20 04:58 49.76354 15.58078 37035 ft 476 kts 139°
2026-04-20 04:58 49.73974 15.61549 36781 ft 476 kts 139°
2026-04-20 04:58 49.71534 15.65108 36529 ft 476 kts 139°
2026-04-20 04:58 49.69130 15.68605 35999 ft 477 kts 139°
2026-04-20 04:59 49.66731 15.72082 35223 ft 480 kts 139°
2026-04-20 04:59 49.64284 15.75621 34370 ft 484 kts 140°
2026-04-20 04:59 49.61816 15.79184 33331 ft 489 kts 140°
2026-04-20 04:59 49.59350 15.82752 32783 ft 481 kts 140°
2026-04-20 05:00 49.56942 15.86246 32200 ft 475 kts 140°
2026-04-20 05:00 49.54540 15.89723 31595 ft 470 kts 141°
2026-04-20 05:00 49.52167 15.93143 31038 ft 465 kts 141°
2026-04-20 05:00 49.49815 15.96526 30455 ft 461 kts 142°
2026-04-20 05:01 49.47479 15.99877 29828 ft 457 kts 142°
2026-04-20 05:01 49.45166 16.03192 29251 ft 451 kts 142°
2026-04-20 05:01 49.42887 16.06461 28684 ft 445 kts 142°
2026-04-20 05:01 49.40640 16.09683 28125 ft 440 kts 142°
2026-04-20 05:02 49.38412 16.12863 27572 ft 435 kts 142°
2026-04-20 05:02 49.36209 16.15995 27055 ft 430 kts 142°
2026-04-20 05:02 49.34023 16.19097 26534 ft 426 kts 142°
2026-04-20 05:02 49.31835 16.22111 26031 ft 419 kts 146°
2026-04-20 05:03 49.29462 16.24592 25584 ft 409 kts 155°
2026-04-20 05:03 49.26942 16.26534 25131 ft 403 kts 159°
2026-04-20 05:03 49.24424 16.28398 24693 ft 400 kts 159°
2026-04-20 05:03 49.21932 16.30243 24261 ft 398 kts 159°
2026-04-20 05:04 49.19440 16.32083 23835 ft 396 kts 159°
2026-04-20 05:04 49.16965 16.33908 23365 ft 395 kts 159°
2026-04-20 05:04 49.14504 16.35725 22919 ft 391 kts 159°
2026-04-20 05:04 49.12062 16.37529 22488 ft 388 kts 159°
2026-04-20 05:05 49.09645 16.39313 22042 ft 385 kts 159°
2026-04-20 05:05 49.07211 16.41105 21594 ft 381 kts 159°
2026-04-20 05:05 49.04870 16.42825 21156 ft 377 kts 159°
2026-04-20 05:05 49.02517 16.44552 20690 ft 374 kts 159°
2026-04-20 05:06 49.00147 16.46290 20232 ft 371 kts 158°
2026-04-20 05:06 48.97829 16.47988 19781 ft 368 kts 158°
2026-04-20 05:06 48.95525 16.49674 19332 ft 366 kts 158°
2026-04-20 05:06 48.93265 16.51327 18859 ft 365 kts 158°
2026-04-20 05:07 48.90982 16.52993 18409 ft 364 kts 158°
2026-04-20 05:07 48.88711 16.54649 17904 ft 362 kts 158°
2026-04-20 05:07 48.86444 16.56303 17438 ft 359 kts 158°
2026-04-20 05:07 48.84201 16.57940 16987 ft 356 kts 158°
2026-04-20 05:08 48.81943 16.59583 16527 ft 354 kts 158°
2026-04-20 05:08 48.79724 16.61190 16065 ft 352 kts 158°
2026-04-20 05:08 48.77437 16.62439 15603 ft 347 kts 169°
2026-04-20 05:08 48.75090 16.63222 15144 ft 344 kts 171°
2026-04-20 05:09 48.73540 16.63728 14818 ft 344 kts 171°
2026-04-20 05:09 48.71196 16.64497 14331 ft 345 kts 171°
2026-04-20 05:09 48.68061 16.65529 13713 ft 344 kts 171°
2026-04-20 05:09 48.66511 16.66038 13397 ft 343 kts 171°
2026-04-20 05:10 48.64185 16.66800 12948 ft 341 kts 171°
2026-04-20 05:10 48.61876 16.67557 12500 ft 339 kts 171°
2026-04-20 05:10 48.59575 16.68314 12042 ft 337 kts 171°
2026-04-20 05:10 48.57286 16.69067 11608 ft 336 kts 171°
2026-04-20 05:11 48.54999 16.69757 11167 ft 335 kts 173°
2026-04-20 05:11 48.52711 16.70380 10727 ft 334 kts 174°
2026-04-20 05:11 48.50426 16.70972 10297 ft 332 kts 174°
2026-04-20 05:11 48.48186 16.71549 10162 ft 321 kts 174°
2026-04-20 05:12 48.46022 16.72114 10014 ft 311 kts 174°
2026-04-20 05:12 48.43906 16.72672 9824 ft 305 kts 174°
2026-04-20 05:12 48.41810 16.73227 9432 ft 307 kts 174°
2026-04-20 05:12 48.39707 16.73785 9034 ft 306 kts 174°
2026-04-20 05:13 48.37613 16.74340 8640 ft 306 kts 174°
2026-04-20 05:13 48.35522 16.74895 8233 ft 303 kts 174°
2026-04-20 05:13 48.33484 16.75397 7836 ft 290 kts 176°
2026-04-20 05:13 48.31518 16.75751 7466 ft 279 kts 179°
2026-04-20 05:14 48.29620 16.76027 7109 ft 270 kts 180°
2026-04-20 05:14 48.27778 16.76276 6757 ft 261 kts 180°
2026-04-20 05:14 48.25993 16.76518 6425 ft 255 kts 180°
2026-04-20 05:14 48.24216 16.76761 6086 ft 257 kts 180°
2026-04-20 05:15 48.22428 16.77013 5725 ft 258 kts 180°
2026-04-20 05:15 48.20637 16.77250 5387 ft 258 kts 184°
2026-04-20 05:15 48.18873 16.77125 5049 ft 248 kts 189°
2026-04-20 05:15 48.17191 16.76977 4725 ft 237 kts 189°
2026-04-20 05:16 48.15632 16.76845 4451 ft 225 kts 189°
2026-04-20 05:16 48.14109 16.76718 4186 ft 215 kts 189°
2026-04-20 05:16 48.12623 16.76589 3927 ft 213 kts 189°
2026-04-20 05:16 48.11126 16.76459 3694 ft 212 kts 189°
2026-04-20 05:17 48.09695 16.76318 3473 ft 212 kts 193°
2026-04-20 05:17 48.08332 16.75602 3188 ft 200 kts 220°
2026-04-20 05:17 48.07380 16.74244 2919 ft 188 kts 244°
2026-04-20 05:17 48.06867 16.72529 2665 ft 173 kts 265°
2026-04-20 05:18 48.06794 16.70845 2398 ft 154 kts 282°
2026-04-20 05:18 48.07046 16.69396 2160 ft 135 kts 296°
2026-04-20 05:18 48.07446 16.68169 2061 ft 129 kts 298°
2026-04-20 05:18 48.07838 16.66958 1969 ft 129 kts 298°
2026-04-20 05:19 48.08233 16.65749 1826 ft 130 kts 299°
2026-04-20 05:19 48.08633 16.64547 1673 ft 129 kts 297°
2026-04-20 05:19 48.09021 16.63336 1479 ft 131 kts 296°
2026-04-20 05:19 48.09419 16.62117 1293 ft 130 kts 298°
2026-04-20 05:20 48.09810 16.60910 1134 ft 128 kts 298°
2026-04-20 05:20 48.10206 16.59717 963 ft 128 kts 298°
2026-04-20 05:20 48.10590 16.58522 813 ft 126 kts 298°
2026-04-20 05:20 48.10977 16.57333 641 ft 125 kts 297°
2026-04-20 05:21 48.11343 16.56252 617 ft 98 kts 300°
2026-04-20 05:21 48.11554 16.55580 618 ft 42 kts 296°
2026-04-20 05:21 48.11661 16.55341 610 ft 21 kts 316°
2026-04-20 05:21 48.11769 16.55185 616 ft 22 kts 316°
2026-04-20 05:22 48.11867 16.55161 610 ft 14 kts 31°
2026-04-20 05:22 48.11851 16.55303 614 ft 16 kts 116°
2026-04-20 05:22 48.11795 16.55468 613 ft 19 kts 117°
2026-04-20 05:22 48.11732 16.55662 618 ft 22 kts 115°
2026-04-20 05:23 48.11670 16.55859 622 ft 11 kts 115°
2026-04-20 05:23 48.11660 16.55957 621 ft 11 kts 62°
2026-04-20 05:23 48.11721 16.55970 620 ft 11 kts 320°
2026-04-20 05:23 48.11765 16.55862 622 ft 11 kts 308°
2026-04-20 05:24 48.11847 16.55871 610 ft 14 kts 23°
2026-04-20 05:24 48.11906 16.55894 621 ft 9 kts 339°
2026-04-20 05:24 48.11933 16.55816 614 ft 7 kts 296°
2026-04-20 05:24 48.11936 16.55807 616 ft 0 kts 296°